Weather History for Chihuahua, Mexico

Change the Weather History Date:

Sunday, October 20, 2013

  Actual Average Record
Temperature  
Mean Temperature 64 °F -  
Max Temperature 79 °F 73 °F 90 °F (2012)
Min Temperature 49 °F 42 °F 37 °F (1999)
Degree Days  
Heating Degree Days 1    
Growing Degree Days 14 (Base 50)    
Moisture  
Dew Point 38 °F    
Average Humidity 45    
Maximum Humidity 100    
Minimum Humidity 13    
Precipitation  
Precipitation 0.00 in - - ()
Sea Level Pressure  
Sea Level Pressure 29.92 in    
Wind  
Wind Speed 4 mph ()    
Max Wind Speed 10 mph    
Max Gust Speed -    
Visibility 8.7 miles    
Events      
Averages and records for this station are not official NWS values.
T = Trace of Precipitation, MM = Missing Value Source: Averaged Metar Reports

Daily Weather History Graph

Daily Weather History Graph

Search for Another Location

Airport:

Trip Planner

Search our weather history database for the weather conditions in past years. The results will help you decide how hot, cold, wet, or windy it might be!

Date:

Astronomy

Oct. 20, 2013 Rise Set
Actual Time 7:08 AM MDT 6:28 PM MDT
Civil Twilight 6:44 AM MDT 6:52 PM MDT
Nautical Twilight 6:16 AM MDT 7:20 PM MDT
Astronomical Twilight 5:49 AM MDT 7:47 PM MDT
Moon 7:48 PM MDT (10/20) 8:40 AM MDT (10/20)
Length of Visible Light 12h 08m
Length of Day
11h 20m
Full, 97% of the Moon is Illuminated
Oct 20
Full
Oct 26
Last Quarter
Nov 3
New
Nov 9
First Quarter
Nov 17
Full

Hourly Weather History & Observations

Time (MDT) Temp. Windchill Dew Point Humidity Pressure Visibility Wind Dir Wind Speed Gust Speed Precip Events Conditions
4:40 AM 42.8 °F 40.1 °F 39.2 °F 87% 30.09 in 10.0 mi South 4.6 mph - N/A   Clear
5:40 AM 49 °F - 43 °F 74% 29.86 in 1 mi WNW 2.2 mph - -  
5:40 AM 41.0 °F 37.1 °F 39.2 °F 93% 29.99 in 10.0 mi SSE 5.8 mph - N/A   Clear
6:40 AM 42.8 °F 39.3 °F 39.2 °F 87% 30.10 in 10.0 mi SSW 5.8 mph - N/A   Clear
7:40 AM 39.2 °F 33.6 °F 39.2 °F 100% 30.11 in 10.0 mi South 8.1 mph - N/A   Clear
8:40 AM 55 °F - 43 °F 53% 29.91 in 6 mi East 2.2 mph - -  
8:41 AM 53.6 °F - 42.8 °F 67% 29.91 in 10.0 mi WSW 3.5 mph - N/A   Clear
9:40 AM 60.8 °F - 42.8 °F 52% 30.13 in 10.0 mi Calm Calm - N/A   Clear
10:40 AM 64.4 °F - 41.0 °F 42% 30.11 in 10.0 mi Calm Calm - N/A   Clear
11:35 AM 72 °F - 50 °F 35% 29.86 in 6 mi ENE 2.2 mph - -  
11:40 AM 71.6 °F - 39.2 °F 31% 29.91 in 10.0 mi Calm Calm - N/A   Clear
12:40 PM 75.2 °F - 35.6 °F 24% 30.04 in 10.0 mi SW 9.2 mph - N/A   Clear
1:40 PM 78.8 °F - 33.8 °F 20% 30.00 in 10.0 mi SSW 10.4 mph - N/A   Partly Cloudy
2:40 PM 78.8 °F - 32.0 °F 18% 29.80 in 10.0 mi WSW 6.9 mph - N/A   Partly Cloudy
2:59 PM 78 °F - 36 °F 13% 29.68 in 6 mi South 4.5 mph - -  
3:40 PM 80.6 °F - 32.0 °F 17% 29.94 in 10.0 mi SE 8.1 mph - N/A   Partly Cloudy
4:40 PM 78.8 °F - 30.2 °F 17% 29.94 in 10.0 mi Calm Calm - N/A   Partly Cloudy
5:40 PM 55 °F - 36 °F 38% 29.59 in 6 mi NE 6.7 mph - -  
5:40 PM 75.2 °F - 28.4 °F 18% 29.79 in 10.0 mi Calm Calm - N/A   Partly Cloudy
6:40 PM 69.8 °F - 32.0 °F 25% 29.95 in 10.0 mi North 3.5 mph - N/A   Clear
7:40 PM 62.6 °F - 35.6 °F 37% 29.98 in 10.0 mi Calm Calm - N/A   Clear
8:38 PM 62 °F - 42 °F 37% 29.61 in 6 mi WNW 2.2 mph - -  
8:40 PM 57.2 °F - 35.6 °F 44% 29.83 in 10.0 mi NW 4.6 mph - N/A   Clear